Location: Libas
(9.8833°N, 125.9833°E)
Time: 21:03:00
(UTC+00:00)

Cosmos 2082 Rocket - Pass Details

Date: 27 October 2020
Orbit: 833 x 854 km, 71.0° (Epoch: 25 November)

Event Time Altitude Azimuth Distance (km) Brightness Sun altitude
Exits shadow 19:21:56 28° 23° (NNE) 1,501 3.5 -30.7°
Drops below altitude 10° 19:24:30 10° 19° (NNE) 2,433 4.7 -30.1°
Sets 19:26:56 0° 18° (NNE) 3,366 5.4 -29.5°
